[[{"header":{"parameterUnit":"m.s-1","parameterCategory":1,"la1":30.2991,"la2":30.254,"lo1":-89.0895,"lo2":-89.0444,"dy":0.0017,"dx":0.0017,"nx":28,"ny":28,"refTime":"2024-04-21T21:00:00:Z","depth":0,"parameterNumber":2,"parameterNumberName":"U-component_of_WINDS"},"data":[0,0,0,0,0,0,0,0,0,0,0,0,0,0,0,0,0,0,0,0,0,0,0,0,0,0,0,0,0,0,0,0,0,0,0,0,0,0,0,0,0,0,0,0,0,0,0,0,0,0,0,0,0,0,0,0,0,0,-3.0921,-3.0923,0,-3.1029,-3.103,-3.1031,-3.1004,-3.1002,-3.1,-3.0998,-3.1106,-3.111,-3.1115,0,0,0,0,0,0,0,0,0,0,0,0,0,-3.0691,-3.0695,-3.0921,-3.0923,-3.0924,-3.1028,-3.103,-3.1031,-3.1004,-3.1002,-3.0999,-3.0997,-3.1104,-3.111,-3.1116,0,0,0,0,0,0,0,0,0,0,0,0,0,-3.0794,-3.0697,-3.0921,-3.0923,-3.0924,-3.1028,-3.103,-3.1032,-3.1005,-3.1002,-3.0999,-3.0996,-3.1102,-3.1109,-3.1116,-3.1224,0,0,-3.1139,-3.1142,0,0,0,0,0,0,0,0,-3.0788,-3.0802,-3.0922,-3.0923,-3.0925,-3.1,-3.0988,-3.1096,-3.1006,-3.0974,-3.0998,-3.0994,-3.1073,-3.1082,-3.1109,-3.1229,-3.1234,-3.1139,-3.1144,-3.1147,-3.1149,0,0,0,0,0,0,0,-3.0781,-3.0797,-3.0964,-3.0923,-3.0925,-3.0918,-3.0929,-3.1008,-3.104,-3.0977,-3.0975,-3.0988,-3.1073,-3.1102,-3.1112,-3.1235,-3.1139,-3.1145,-3.115,-3.1153,-3.1446,-3.1449,0,0,0,0,0,0,-3.0773,-3.0792,-3.096,-3.0967,-3.0847,-3.0925,-3.0937,-3.0979,-3.1039,-3.1045,-3.0991,-3.0987,-3.1092,-3.1103,-3.1115,-3.1243,-3.1147,-3.1153,-3.1158,-3.1442,-3.1447,-3.145,0,0,0,0,0,0,-3.0768,-3.0788,-3.0956,-3.0879,-3.09,-3.0932,-3.0979,-3.0983,-3.1012,-3.105,-3.1055,-3.1015,-3.109,-3.1105,-3.1197,-3.1246,-3.1157,-3.1163,-3.1438,-3.1444,-3.1448,-3.15,0,0,0,0,0,0,-3.0761,-3.0786,-3.0828,-3.088,-3.0904,-3.1036,-3.0982,-3.0987,-3.1024,-3.102,-3.1074,-3.1079,-3.1088,-3.1186,-3.1204,-3.1255,-3.1169,-3.1434,-3.1441,-3.1447,-3.1494,-3.1506,-3.1517,0,0,0,0,0,-3.0753,-3.0839,-3.083,-3.0851,-3.0957,-3.1039,-3.1053,-3.1062,-3.1029,-3.107,-3.1094,-3.1078,-3.1239,-3.1196,-3.1215,-3.1269,-3.1431,-3.1439,-3.1446,-3.1489,-3.1504,-3.1517,0,0,0,0,0,0,-3.0792,-3.0846,-3.0837,-3.0942,-3.0986,-3.1035,-3.1087,-3.1078,-3.1132,-3.1125,-3.1134,-3.1146,-3.1239,-3.1264,-3.1215,-3.1375,-3.133,-3.1342,-3.1355,-3.137,-3.1381,-3.1372,-3.1175,0,0,0,0,0,-3.0812,-3.0875,-3.0919,-3.1007,-3.103,-3.1055,-3.1091,-3.1094,-3.114,-3.1159,-3.119,-3.1234,-3.1294,-3.1334,-3.1392,-3.1498,-3.1508,-3.1545,-3.1556,-3.1566,-3.1575,-3.1631,-3.1647,-3.1476,-3.1476,-3.1475,0,0,-3.0856,-3.0893,-3.0932,-3.1016,-3.1051,-3.1114,-3.1071,-3.1141,-3.1188,-3.1169,-3.1257,-3.1281,-3.1331,-3.143,-3.1475,-3.1454,-3.1625,-3.1575,-3.1582,-3.1587,-3.164,-3.1657,-3.1671,-3.1481,-3.148,-3.1479,0,0,-3.0967,-3.1003,-3.1079,-3.1114,-3.1167,-3.1183,-3.1202,-3.1252,-3.1267,-3.1355,-3.1342,-3.1398,-3.1502,-3.1538,-3.1569,-3.1693,-3.1679,-3.1712,-3.1771,-3.1825,-3.1838,-3.185,-3.1892,-3.1907,-3.1722,-3.1722,-3.1722,0,-3.1013,-3.111,-3.1119,-3.119,-3.1226,-3.1213,-3.1289,-3.1323,-3.1392,-3.1417,-3.1392,-3.1521,-3.1554,-3.166,-3.169,-3.1717,-3.1737,-3.1705,-3.1836,-3.1848,-3.1859,-3.1899,-3.1915,-3.1725,-3.1725,-3.1725,-3.1724,0,-3.1164,-3.1231,-3.1286,-3.1353,-3.1395,-3.1469,-3.1488,-3.153,-3.1529,-3.1547,-3.1636,-3.1676,-3.174,-3.1766,-3.1766,-3.1872,-3.1856,-3.1834,-3.1788,-3.1879,-3.1916,-3.1932,-3.173,-3.1729,-3.1728,-3.1727,0,0,-3.1301,-3.1371,-3.1391,-3.142,-3.1478,-3.1529,-3.1601,-3.1665,-3.1699,-3.1748,-3.1807,-3.1895,-3.1874,-3.191,-3.1915,-3.1963,-3.2055,-3.1934,-3.1935,-3.1953,-3.217,-3.2185,-3.2202,-3.2047,-3.205,-3.2052,-3.2165,0,-3.1415,-3.1542,-3.1552,-3.1666,-3.1726,-3.1714,-3.1777,-3.1818,-3.1837,-3.189,-3.1911,-3.1973,-3.1942,-3.1963,-3.201,-3.2034,-3.2098,-3.2026,-3.21,-3.2102,-3.2085,-3.2222,-3.2238,-3.2343,-3.218,-3.2182,-3.2184,0,-3.1565,-3.1617,-3.1737,-3.1784,-3.181,-3.1866,-3.1923,-3.1976,-3.2021,-3.2032,-3.2072,-3.2069,-3.2141,-3.2095,-3.2193,-3.2144,-3.2175,-3.2191,-3.2195,-3.22,-3.2147,-3.2229,-3.2377,-3.2391,-3.2208,-3.2206,-3.2204,0,-3.165,-3.175,-3.1834,-3.186,-3.1918,-3.1957,-3.1982,-3.2025,-3.2062,-3.2113,-3.2136,-3.2195,-3.2226,-3.2271,-3.2284,-3.2249,-3.2381,-3.2336,-3.239,-3.239,-3.2417,-3.2414,-3.2569,-3.2441,-3.2441,-3.2441,-3.244,0,-3.1774,-3.1848,-3.1873,-3.1924,-3.2005,-3.2016,-3.2095,-3.2119,-3.2157,-3.2212,-3.2206,-3.2257,-3.2272,-3.2325,-3.2336,-3.2415,-3.243,-3.2439,-3.244,-3.2438,-3.2436,-3.2456,-3.2448,-3.2445,-3.2444,-3.2443,-3.2442,0,-3.1882,-3.1902,-3.1992,-3.2039,-3.2053,-3.211,-3.215,-3.2199,-3.2217,-3.2286,-3.2303,-3.2331,-3.2394,-3.2411,-3.2487,-3.2494,-3.2586,-3.2582,-3.257,-3.2569,-3.2621,-3.2615,-3.2792,-3.2815,-3.2674,-3.2676,-3.2677,0,-3.1959,-3.2015,-3.2068,-3.2104,-3.2131,-3.219,-3.2227,-3.224,-3.2279,-3.2335,-3.2376,-3.2438,-3.2488,-3.2589,-3.2615,-3.2673,-3.2668,-3.2727,-3.2677,-3.2672,-3.2666,-3.2661,-3.2666,-3.2735,-3.2737,-3.2738,-3.2739,0,-3.2093,-3.21,-3.2154,-3.2211,-3.2256,-3.2302,-3.2346,-3.2376,-3.2394,-3.2438,-3.2502,-3.2541,-3.2618,-3.2679,-3.2737,-3.2762,-3.2753,-3.2755,-3.277,-3.2767,-3.2756,-3.276,-3.2593,-3.275,-3.2749,-3.2748,-3.2747,-3.2747,-3.2186,-3.2234,-3.2278,-3.2338,-3.2372,-3.2413,-3.2461,-3.2485,-3.2538,-3.2602,-3.2606,-3.2675,-3.2718,-3.2794,-3.2823,-3.2876,-3.2859,-3.2881,-3.2886,-3.2891,-3.2894,-3.275,-3.2887,-3.2887,-3.2887,-3.2886,-3.2886,0,-3.2317,-3.2344,-3.24,-3.2461,-3.2508,-3.2497,-3.2544,-3.2584,-3.2644,-3.2686,-3.2735,-3.2808,-3.2866,-3.2898,-3.2956,-3.2992,-3.2989,-3.3007,-3.3003,-3.3008,-3.2908,-3.2888,-3.3008,-3.3008,-3.3008,-3.3008,-3.3008,-3.3008,-3.239,-3.247,-3.2482,-3.2579,-3.2606,-3.2673,-3.2701,-3.2738,-3.2771,-3.2852,-3.2901,-3.2921,-3.2958,-3.3018,-3.3071,-3.3079,-3.3099,-3.3118,-3.3123,-3.3028,-3.3016,-3.3004,-3.2985,-3.3123,-3.3123,-3.3219,-3.322,-3.3221]},{"header":{"parameterUnit":"m.s-1","parameterCategory":1,"la1":30.2991,"la2":30.254,"lo1":-89.0895,"lo2":-89.0444,"dy":0.0017,"dx":0.0017,"nx":28,"ny":28,"refTime":"2024-04-21T21:00:00:Z","depth":0,"parameterNumber":3,"parameterNumberName":"V-component_of_WINDS"},"data":[0,0,0,0,0,0,0,0,0,0,0,0,0,0,0,0,0,0,0,0,0,0,0,0,0,0,0,0,0,0,0,0,0,0,0,0,0,0,0,0,0,0,0,0,0,0,0,0,0,0,0,0,0,0,0,0,0,0,-1.0739,-1.074,0,-1.0753,-1.0753,-1.0753,-1.076,-1.076,-1.076,-1.076,-1.0774,-1.0775,-1.0775,0,0,0,0,0,0,0,0,0,0,0,0,0,-1.0718,-1.0719,-1.0739,-1.074,-1.074,-1.0753,-1.0753,-1.0753,-1.076,-1.076,-1.076,-1.076,-1.0774,-1.0775,-1.0775,0,0,0,0,0,0,0,0,0,0,0,0,0,-1.0729,-1.0719,-1.0739,-1.0745,-1.0745,-1.0753,-1.0753,-1.0754,-1.076,-1.076,-1.076,-1.076,-1.0774,-1.0775,-1.0775,-1.0779,0,0,-1.0777,-1.0777,0,0,0,0,0,0,0,0,-1.0729,-1.073,-1.0744,-1.0744,-1.0745,-1.0755,-1.0751,-1.0762,-1.076,-1.0755,-1.076,-1.076,-1.0768,-1.0769,-1.0772,-1.0779,-1.078,-1.0777,-1.0777,-1.0778,-1.0778,0,0,0,0,0,0,0,-1.0728,-1.073,-1.0745,-1.0744,-1.0745,-1.0746,-1.0748,-1.0753,-1.0761,-1.0755,-1.0756,-1.0757,-1.0768,-1.0771,-1.0772,-1.078,-1.0777,-1.0778,-1.0778,-1.0778,-1.079,-1.079,0,0,0,0,0,0,-1.0726,-1.0729,-1.0744,-1.0745,-1.0737,-1.0747,-1.0748,-1.0752,-1.0761,-1.0763,-1.0757,-1.0757,-1.077,-1.0771,-1.0773,-1.0777,-1.0778,-1.0778,-1.0778,-1.079,-1.079,-1.079,0,0,0,0,0,0,-1.0726,-1.0728,-1.0744,-1.0737,-1.0739,-1.0747,-1.0751,-1.0752,-1.0755,-1.0763,-1.0764,-1.0759,-1.077,-1.0772,-1.0777,-1.0777,-1.0778,-1.0779,-1.079,-1.079,-1.079,-1.0785,0,0,0,0,0,0,-1.0725,-1.0727,-1.0729,-1.0737,-1.074,-1.0748,-1.0751,-1.0752,-1.0756,-1.0756,-1.0764,-1.0766,-1.077,-1.0776,-1.0777,-1.0778,-1.0779,-1.079,-1.079,-1.079,-1.0785,-1.0785,-1.0784,0,0,0,0,0,-1.0724,-1.0727,-1.0729,-1.0731,-1.0742,-1.0748,-1.075,-1.0755,-1.0756,-1.0757,-1.0762,-1.0765,-1.0777,-1.0776,-1.0778,-1.0779,-1.079,-1.079,-1.079,-1.0785,-1.0785,-1.0784,0,0,0,0,0,0,-1.0719,-1.0728,-1.0731,-1.0736,-1.0741,-1.0749,-1.0751,-1.0754,-1.0759,-1.076,-1.0766,-1.0768,-1.0772,-1.0776,-1.0775,-1.0782,-1.0784,-1.0784,-1.0779,-1.0779,-1.0779,-1.0778,-1.078,0,0,0,0,0,-1.0719,-1.0723,-1.0731,-1.0735,-1.0737,-1.0744,-1.0747,-1.075,-1.0756,-1.0758,-1.0764,-1.0769,-1.0773,-1.0776,-1.0781,-1.0786,-1.0787,-1.0787,-1.0786,-1.0786,-1.0786,-1.0788,-1.0788,-1.079,-1.079,-1.079,0,0,-1.0718,-1.0723,-1.0726,-1.0734,-1.0739,-1.0743,-1.0746,-1.075,-1.0753,-1.0759,-1.0764,-1.0768,-1.0774,-1.0779,-1.0781,-1.0782,-1.0786,-1.0786,-1.0786,-1.0786,-1.0788,-1.0788,-1.0788,-1.079,-1.079,-1.079,0,0,-1.0718,-1.0723,-1.0727,-1.0731,-1.0737,-1.0741,-1.0742,-1.0749,-1.0752,-1.0757,-1.0761,-1.0765,-1.0773,-1.0777,-1.078,-1.0781,-1.0784,-1.0782,-1.078,-1.0782,-1.0782,-1.0781,-1.0781,-1.0781,-1.0782,-1.0782,-1.0782,0,-1.0716,-1.0723,-1.0728,-1.0732,-1.0735,-1.074,-1.0743,-1.0747,-1.0755,-1.0757,-1.0758,-1.0768,-1.0772,-1.0777,-1.0777,-1.078,-1.0781,-1.0781,-1.0781,-1.0781,-1.0781,-1.0781,-1.0781,-1.0782,-1.0782,-1.0782,-1.0782,0,-1.072,-1.0724,-1.0726,-1.0733,-1.0737,-1.074,-1.0746,-1.0748,-1.0751,-1.0755,-1.076,-1.0765,-1.0771,-1.0772,-1.0775,-1.0778,-1.0778,-1.078,-1.0782,-1.078,-1.078,-1.078,-1.0781,-1.0782,-1.0782,-1.0782,0,0,-1.0718,-1.0727,-1.0728,-1.073,-1.0737,-1.0741,-1.0744,-1.075,-1.0752,-1.0756,-1.0759,-1.0765,-1.0767,-1.0771,-1.0774,-1.0775,-1.0775,-1.0777,-1.0777,-1.0776,-1.0777,-1.0775,-1.0775,-1.0777,-1.0777,-1.0777,-1.0776,0,-1.0719,-1.0726,-1.073,-1.0735,-1.0739,-1.0743,-1.0746,-1.075,-1.0753,-1.0757,-1.0761,-1.0765,-1.0767,-1.0769,-1.077,-1.0775,-1.0775,-1.0775,-1.0779,-1.0779,-1.0778,-1.0775,-1.0774,-1.0773,-1.0776,-1.0776,-1.0776,0,-1.0722,-1.0726,-1.0731,-1.0737,-1.0738,-1.0741,-1.0746,-1.0749,-1.0754,-1.0756,-1.0759,-1.0763,-1.0766,-1.0767,-1.0772,-1.0771,-1.0773,-1.0776,-1.0776,-1.0776,-1.0778,-1.0776,-1.0773,-1.0773,-1.0776,-1.0776,-1.0776,0,-1.0719,-1.0726,-1.073,-1.0732,-1.0739,-1.0741,-1.0744,-1.0748,-1.0751,-1.0755,-1.0757,-1.0761,-1.0763,-1.0766,-1.0771,-1.0771,-1.0774,-1.0776,-1.0776,-1.0776,-1.0777,-1.0777,-1.0775,-1.0778,-1.0778,-1.0778,-1.0778,0,-1.072,-1.0723,-1.0729,-1.0731,-1.0734,-1.0739,-1.0742,-1.0745,-1.0749,-1.0752,-1.0755,-1.0758,-1.0763,-1.0766,-1.0769,-1.0772,-1.0773,-1.0775,-1.0776,-1.0775,-1.0775,-1.0776,-1.0776,-1.0778,-1.0778,-1.0778,-1.0778,0,-1.0718,-1.0723,-1.0727,-1.0733,-1.0734,-1.0736,-1.0741,-1.0743,-1.0746,-1.0749,-1.075,-1.0756,-1.0759,-1.0763,-1.0769,-1.0771,-1.0773,-1.0775,-1.0772,-1.0772,-1.0772,-1.0772,-1.077,-1.077,-1.0774,-1.0774,-1.0774,0,-1.0719,-1.0721,-1.0727,-1.0728,-1.0731,-1.0734,-1.0737,-1.0741,-1.0743,-1.0748,-1.075,-1.0753,-1.0757,-1.0762,-1.0766,-1.077,-1.0771,-1.0771,-1.0772,-1.077,-1.0771,-1.0771,-1.0771,-1.077,-1.077,-1.077,-1.077,0,-1.0718,-1.072,-1.0724,-1.0727,-1.073,-1.0733,-1.0737,-1.0738,-1.0743,-1.0745,-1.0749,-1.0751,-1.0756,-1.076,-1.0764,-1.0766,-1.0769,-1.077,-1.077,-1.0769,-1.0767,-1.0767,-1.0771,-1.077,-1.077,-1.077,-1.077,-1.077,-1.0718,-1.0719,-1.0723,-1.0727,-1.073,-1.0733,-1.0735,-1.0738,-1.0741,-1.0745,-1.0747,-1.075,-1.0754,-1.076,-1.0762,-1.0765,-1.0766,-1.0766,-1.0766,-1.0766,-1.0766,-1.0766,-1.0766,-1.0766,-1.0766,-1.0766,-1.0766,0,-1.0717,-1.072,-1.0723,-1.0727,-1.073,-1.0732,-1.0735,-1.0737,-1.074,-1.0743,-1.0746,-1.075,-1.0753,-1.0757,-1.076,-1.0761,-1.0763,-1.0762,-1.0762,-1.0763,-1.0765,-1.0764,-1.0761,-1.0761,-1.0761,-1.0761,-1.0761,-1.0761,-1.0718,-1.0721,-1.0723,-1.0727,-1.0729,-1.0732,-1.0734,-1.0737,-1.0739,-1.0743,-1.0746,-1.0748,-1.0751,-1.0755,-1.0758,-1.0759,-1.076,-1.0759,-1.076,-1.0762,-1.0763,-1.0763,-1.0762,-1.0759,-1.0759,-1.0758,-1.0758,-1.0758]}]]